Вернуться в каталог

CZ-6A DEB

АктивенSSO
NORAD 56626·DEBRIS·🇨🇳 China

Запущен Nov 11, 2022 с Taiyuan Satellite Launch Center

Loading…

Ближайшие Пролёты (ближайшие 24 часа)

TLE

СвежийSource: Space-Track

Эпоха: Sep 13, 2026, 08:48 UTC

1 56626U 22151AFA 26256.36702709  .00000422  00000-0  20422-3 0  9992
2 56626  98.8061 289.4880 0008634 167.3050 192.8347 14.23770700176505

Отслеживайте CZ-6A DEB в реальном времени с AllMySat

Download on the App Store